Datum / Uhrzeit;kW
01.01.2023 00:15;99.606
01.01.2023 00:30;99.582
01.01.2023 00:45;86.778
01.01.2023 01:00;80.468
01.01.2023 01:15;96.881
01.01.2023 01:30;99.379
01.01.2023 01:45;92.632
01.01.2023 02:00;100.628
01.01.2023 02:15;108.337
01.01.2023 02:30;114.719
01.01.2023 02:45;122.860
01.01.2023 03:00;122.228
01.01.2023 03:15;108.136
01.01.2023 03:30;112.380
01.01.2023 03:45;109.127
01.01.2023 04:00;109.812
01.01.2023 04:15;110.624
01.01.2023 04:30;110.575
01.01.2023 04:45;106.745
01.01.2023 05:00;104.546
01.01.2023 05:15;103.323
01.01.2023 05:30;108.790
01.01.2023 05:45;112.807
01.01.2023 06:00;115.553
01.01.2023 06:15;118.787
01.01.2023 06:30;120.223
01.01.2023 06:45;118.687
01.01.2023 07:00;119.680
01.01.2023 07:15;128.053
01.01.2023 07:30;130.052
01.01.2023 07:45;128.085
01.01.2023 08:00;135.327
01.01.2023 08:15;126.928
01.01.2023 08:30;124.617
01.01.2023 08:45;121.416
01.01.2023 09:00;119.669
01.01.2023 09:15;127.085
01.01.2023 09:30;119.728
01.01.2023 09:45;118.833
01.01.2023 10:00;125.904
01.01.2023 10:15;125.011
01.01.2023 10:30;121.413
01.01.2023 10:45;111.375
01.01.2023 11:00;105.992
01.01.2023 11:15;104.546
01.01.2023 11:30;123.134
01.01.2023 11:45;95.702
01.01.2023 12:00;84.412
01.01.2023 12:15;69.650
01.01.2023 12:30;67.724
01.01.2023 12:45;72.902
01.01.2023 13:00;63.180
01.01.2023 13:15;58.818
01.01.2023 13:30;55.595
01.01.2023 13:45;56.656
01.01.2023 14:00;44.156
01.01.2023 14:15;35.521
01.01.2023 14:30;29.670
01.01.2023 14:45;25.953
01.01.2023 15:00;24.492
01.01.2023 15:15;45.389
01.01.2023 15:30;43.330
01.01.2023 15:45;39.750
01.01.2023 16:00;27.495
01.01.2023 16:15;13.744
01.01.2023 16:30;7.191
01.01.2023 16:45;5.908
01.01.2023 17:00;6.454
01.01.2023 17:15;8.032
01.01.2023 17:30;3.408
01.01.2023 17:45;2.157
01.01.2023 18:00;7.363
01.01.2023 18:15;11.071
01.01.2023 18:30;13.210
01.01.2023 18:45;18.482
01.01.2023 19:00;37.357
01.01.2023 19:15;64.664
01.01.2023 19:30;83.981
01.01.2023 19:45;97.408
01.01.2023 20:00;95.722
01.01.2023 20:15;101.772
01.01.2023 20:30;98.558
01.01.2023 20:45;106.968
01.01.2023 21:00;110.945
01.01.2023 21:15;102.947
01.01.2023 21:30;105.328
01.01.2023 21:45;108.297
01.01.2023 22:00;108.432
01.01.2023 22:15;104.760
01.01.2023 22:30;106.081
01.01.2023 22:45;113.214
01.01.2023 23:00;113.053
01.01.2023 23:15;109.944
01.01.2023 23:30;113.050
01.01.2023 23:45;111.517
02.01.2023 00:00;111.929
02.01.2023 00:15;114.550
02.01.2023 00:30;118.481
02.01.2023 00:45;135.569
02.01.2023 01:00;137.313
02.01.2023 01:15;139.307
02.01.2023 01:30;130.332
02.01.2023 01:45;130.968
02.01.2023 02:00;131.038
02.01.2023 02:15;131.417
02.01.2023 02:30;128.251
02.01.2023 02:45;121.810
02.01.2023 03:00;131.291
02.01.2023 03:15;130.193
02.01.2023 03:30;121.568
02.01.2023 03:45;126.595
02.01.2023 04:00;135.014
02.01.2023 04:15;127.395
02.01.2023 04:30;137.231
02.01.2023 04:45;133.361
02.01.2023 05:00;135.235
02.01.2023 05:15;126.461
02.01.2023 05:30;134.185
02.01.2023 05:45;127.743
02.01.2023 06:00;91.923
02.01.2023 06:15;88.177
02.01.2023 06:30;87.517
02.01.2023 06:45;87.181
02.01.2023 07:00;95.046
02.01.2023 07:15;94.399
02.01.2023 07:30;92.895
02.01.2023 07:45;101.440
02.01.2023 08:00;99.139
02.01.2023 08:15;89.263
02.01.2023 08:30;84.299
02.01.2023 08:45;94.732
02.01.2023 09:00;90.394
02.01.2023 09:15;80.501
02.01.2023 09:30;97.596
02.01.2023 09:45;116.317
02.01.2023 10:00;113.588
02.01.2023 10:15;128.454
02.01.2023 10:30;117.925
02.01.2023 10:45;121.755
02.01.2023 11:00;118.516
02.01.2023 11:15;125.244
02.01.2023 11:30;147.004
02.01.2023 11:45;149.233
02.01.2023 12:00;137.021
02.01.2023 12:15;145.759
02.01.2023 12:30;146.955
02.01.2023 12:45;142.539
02.01.2023 13:00;141.856
02.01.2023 13:15;144.311
02.01.2023 13:30;142.322
02.01.2023 13:45;132.166
02.01.2023 14:00;109.254
02.01.2023 14:15;101.851
02.01.2023 14:30;86.653
02.01.2023 14:45;91.290
02.01.2023 15:00;96.756
02.01.2023 15:15;82.466
02.01.2023 15:30;93.987
02.01.2023 15:45;100.853
02.01.2023 16:00;91.271
02.01.2023 16:15;72.366
02.01.2023 16:30;71.209
02.01.2023 16:45;104.047
02.01.2023 17:00;99.502
02.01.2023 17:15;71.323
02.01.2023 17:30;19.061
02.01.2023 17:45;38.496
02.01.2023 18:00;68.284
02.01.2023 18:15;98.966
02.01.2023 18:30;104.347
02.01.2023 18:45;90.159
02.01.2023 19:00;91.382
02.01.2023 19:15;110.835
02.01.2023 19:30;103.813
02.01.2023 19:45;95.040
02.01.2023 20:00;78.466
02.01.2023 20:15;64.434
02.01.2023 20:30;58.363
02.01.2023 20:45;54.019
02.01.2023 21:00;48.649
02.01.2023 21:15;45.927
02.01.2023 21:30;40.296
02.01.2023 21:45;41.566
02.01.2023 22:00;36.452
02.01.2023 22:15;27.073
02.01.2023 22:30;16.653
02.01.2023 22:45;10.304
02.01.2023 23:00;12.934
02.01.2023 23:15;10.088
02.01.2023 23:30;9.405
02.01.2023 23:45;9.951
03.01.2023 00:00;5.170
03.01.2023 00:15;3.269
03.01.2023 00:30;4.678
03.01.2023 00:45;3.390
03.01.2023 01:00;2.891
03.01.2023 01:15;3.710
03.01.2023 01:30;4.647
03.01.2023 01:45;5.883
03.01.2023 02:00;7.081
03.01.2023 02:15;8.187
03.01.2023 02:30;10.019
03.01.2023 02:45;12.234
03.01.2023 03:00;16.570
03.01.2023 03:15;16.788
03.01.2023 03:30;20.835
03.01.2023 03:45;21.284
03.01.2023 04:00;21.973
03.01.2023 04:15;27.975
03.01.2023 04:30;29.273
03.01.2023 04:45;20.778
03.01.2023 05:00;16.791
03.01.2023 05:15;12.578
03.01.2023 05:30;8.890
03.01.2023 05:45;4.817
03.01.2023 06:00;3.552
03.01.2023 06:15;1.503
03.01.2023 06:30;2.374
03.01.2023 06:45;4.114
03.01.2023 07:00;4.394
03.01.2023 07:15;2.613
03.01.2023 07:30;3.718
03.01.2023 07:45;3.363
03.01.2023 08:00;2.678
03.01.2023 08:15;1.699
03.01.2023 08:30;2.628
03.01.2023 08:45;643
03.01.2023 09:00;33
03.01.2023 09:15;39
03.01.2023 09:30;33
03.01.2023 09:45;36
03.01.2023 10:00;27
03.01.2023 10:15;24
03.01.2023 10:30;18
03.01.2023 10:45;662
03.01.2023 11:00;4.925
03.01.2023 11:15;8.207
03.01.2023 11:30;8.516
03.01.2023 11:45;5.554
03.01.2023 12:00;4.234
03.01.2023 12:15;2.693
03.01.2023 12:30;3.782
03.01.2023 12:45;1.597
03.01.2023 13:00;2.531
03.01.2023 13:15;2.061
03.01.2023 13:30;2.036
03.01.2023 13:45;5.194
03.01.2023 14:00;11.806
03.01.2023 14:15;7.603
03.01.2023 14:30;7.888
03.01.2023 14:45;9.739
03.01.2023 15:00;14.798
03.01.2023 15:15;23.254
03.01.2023 15:30;31.955
03.01.2023 15:45;25.588
03.01.2023 16:00;16.855
03.01.2023 16:15;10.625
03.01.2023 16:30;7.114
03.01.2023 16:45;7.894
03.01.2023 17:00;7.422
03.01.2023 17:15;10.700
03.01.2023 17:30;18.108
03.01.2023 17:45;30.495
03.01.2023 18:00;28.302
03.01.2023 18:15;25.636
03.01.2023 18:30;26.052
03.01.2023 18:45;30.755
03.01.2023 19:00;36.969
03.01.2023 19:15;34.918
03.01.2023 19:30;26.038
03.01.2023 19:45;23.900
03.01.2023 20:00;24.177
03.01.2023 20:15;29.309
03.01.2023 20:30;21.138
03.01.2023 20:45;25.860
03.01.2023 21:00;23.221
03.01.2023 21:15;24.068
03.01.2023 21:30;35.823
03.01.2023 21:45;41.619
03.01.2023 22:00;43.692
03.01.2023 22:15;44.785
03.01.2023 22:30;40.859
03.01.2023 22:45;41.616
03.01.2023 23:00;43.997
03.01.2023 23:15;55.499
03.01.2023 23:30;63.348
03.01.2023 23:45;60.024
04.01.2023 00:00;54.083
04.01.2023 00:15;56.502
04.01.2023 00:30;55.786
04.01.2023 00:45;47.621
04.01.2023 01:00;43.869
04.01.2023 01:15;52.790
04.01.2023 01:30;58.110
04.01.2023 01:45;62.043
04.01.2023 02:00;66.676
04.01.2023 02:15;71.209
04.01.2023 02:30;86.730
04.01.2023 02:45;93.102
04.01.2023 03:00;91.619
04.01.2023 03:15;83.087
04.01.2023 03:30;79.945
04.01.2023 03:45;74.704
04.01.2023 04:00;70.829
04.01.2023 04:15;73.578
04.01.2023 04:30;77.328
04.01.2023 04:45;68.664
04.01.2023 05:00;67.664
04.01.2023 05:15;71.907
04.01.2023 05:30;85.572
04.01.2023 05:45;91.738
04.01.2023 06:00;99.703
04.01.2023 06:15;121.479
04.01.2023 06:30;127.822
04.01.2023 06:45;137.543
04.01.2023 07:00;143.266
04.01.2023 07:15;144.610
04.01.2023 07:30;135.152
04.01.2023 07:45;157.283
04.01.2023 08:00;158.055
04.01.2023 08:15;140.574
04.01.2023 08:30;132.534
04.01.2023 08:45;144.756
04.01.2023 09:00;137.852
04.01.2023 09:15;142.090
04.01.2023 09:30;158.315
04.01.2023 09:45;158.373
04.01.2023 10:00;154.979
04.01.2023 10:15;152.787
04.01.2023 10:30;154.920
04.01.2023 10:45;153.790
04.01.2023 11:00;150.418
04.01.2023 11:15;152.647
04.01.2023 11:30;154.529
04.01.2023 11:45;158.276
04.01.2023 12:00;155.905
04.01.2023 12:15;158.751
04.01.2023 12:30;161.260
04.01.2023 12:45;160.315
04.01.2023 13:00;161.150
04.01.2023 13:15;167.320
04.01.2023 13:30;171.700
04.01.2023 13:45;179.216
04.01.2023 14:00;184.688
04.01.2023 14:15;184.421
04.01.2023 14:30;180.641
04.01.2023 14:45;180.647
04.01.2023 15:00;190.956
04.01.2023 15:15;191.215
04.01.2023 15:30;191.209
04.01.2023 15:45;196.446
04.01.2023 16:00;188.415
04.01.2023 16:15;190.408
04.01.2023 16:30;189.642
04.01.2023 16:45;181.233
04.01.2023 17:00;175.963
04.01.2023 17:15;171.627
04.01.2023 17:30;166.005
04.01.2023 17:45;167.476
04.01.2023 18:00;169.986
04.01.2023 18:15;169.110
04.01.2023 18:30;169.751
04.01.2023 18:45;173.720
04.01.2023 19:00;174.141
04.01.2023 19:15;174.356
04.01.2023 19:30;172.333
04.01.2023 19:45;173.083
04.01.2023 20:00;174.361
04.01.2023 20:15;172.906
04.01.2023 20:30;169.567
04.01.2023 20:45;165.798
04.01.2023 21:00;165.347
04.01.2023 21:15;174.034
04.01.2023 21:30;178.278
04.01.2023 21:45;168.841
04.01.2023 22:00;159.858
04.01.2023 22:15;154.220
04.01.2023 22:30;150.877
04.01.2023 22:45;153.521
04.01.2023 23:00;160.266
04.01.2023 23:15;164.395
04.01.2023 23:30;156.008
04.01.2023 23:45;153.606
05.01.2023 00:00;160.584
05.01.2023 00:15;151.925
05.01.2023 00:30;156.970
05.01.2023 00:45;164.262
05.01.2023 01:00;171.601
05.01.2023 01:15;165.398
05.01.2023 01:30;156.907
05.01.2023 01:45;154.369
05.01.2023 02:00;149.991
05.01.2023 02:15;145.067
05.01.2023 02:30;139.625
05.01.2023 02:45;141.703
05.01.2023 03:00;129.896
05.01.2023 03:15;113.892
05.01.2023 03:30;115.905
05.01.2023 03:45;128.326
05.01.2023 04:00;127.647
05.01.2023 04:15;130.508
05.01.2023 04:30;130.859
05.01.2023 04:45;143.697
05.01.2023 05:00;156.069
05.01.2023 05:15;160.829
05.01.2023 05:30;162.447
05.01.2023 05:45;159.183
05.01.2023 06:00;148.797
05.01.2023 06:15;140.581
05.01.2023 06:30;133.146
05.01.2023 06:45;113.622
05.01.2023 07:00;110.064
05.01.2023 07:15;124.814
05.01.2023 07:30;109.211
05.01.2023 07:45;87.171
05.01.2023 08:00;83.101
05.01.2023 08:15;89.938
05.01.2023 08:30;71.506
05.01.2023 08:45;67.282
05.01.2023 09:00;73.563
05.01.2023 09:15;81.626
05.01.2023 09:30;101.911
05.01.2023 09:45;125.481
05.01.2023 10:00;109.049
05.01.2023 10:15;82.655
05.01.2023 10:30;80.757
05.01.2023 10:45;99.020
05.01.2023 11:00;115.936
05.01.2023 11:15;111.295
05.01.2023 11:30;114.045
05.01.2023 11:45;128.438
05.01.2023 12:00;114.466
05.01.2023 12:15;108.713
05.01.2023 12:30;98.158
05.01.2023 12:45;81.946
05.01.2023 13:00;52.899
05.01.2023 13:15;58.185
05.01.2023 13:30;74.121
05.01.2023 13:45;84.665
05.01.2023 14:00;78.186
05.01.2023 14:15;54.070
05.01.2023 14:30;43.474
05.01.2023 14:45;38.443
05.01.2023 15:00;23.474
05.01.2023 15:15;13.798
05.01.2023 15:30;17.326
05.01.2023 15:45;21.411
05.01.2023 16:00;26.352
05.01.2023 16:15;25.713
05.01.2023 16:30;25.206
05.01.2023 16:45;22.596
05.01.2023 17:00;19.906
05.01.2023 17:15;17.279
05.01.2023 17:30;13.430
05.01.2023 17:45;14.802
05.01.2023 18:00;16.107
05.01.2023 18:15;15.524
05.01.2023 18:30;14.082
05.01.2023 18:45;11.265
05.01.2023 19:00;14.082
05.01.2023 19:15;21.889
05.01.2023 19:30;43.794
05.01.2023 19:45;43.464
05.01.2023 20:00;50.980
05.01.2023 20:15;66.163
05.01.2023 20:30;68.690
05.01.2023 20:45;72.762
05.01.2023 21:00;83.898
05.01.2023 21:15;95.425
05.01.2023 21:30;95.043
05.01.2023 21:45;70.519
05.01.2023 22:00;62.943
05.01.2023 22:15;67.853
05.01.2023 22:30;65.537
05.01.2023 22:45;57.746
05.01.2023 23:00;55.143
05.01.2023 23:15;51.093
05.01.2023 23:30;44.136
05.01.2023 23:45;36.998
06.01.2023 00:00;25.881
06.01.2023 00:15;27.288
06.01.2023 00:30;34.951
06.01.2023 00:45;26.860
06.01.2023 01:00;19.513
06.01.2023 01:15;14.409
06.01.2023 01:30;14.267
06.01.2023 01:45;16.802
06.01.2023 02:00;17.601
06.01.2023 02:15;22.095
06.01.2023 02:30;22.947
06.01.2023 02:45;30.675
06.01.2023 03:00;33.106
06.01.2023 03:15;33.360
06.01.2023 03:30;60.596
06.01.2023 03:45;45.913
06.01.2023 04:00;28.243
06.01.2023 04:15;25.828
06.01.2023 04:30;27.741
06.01.2023 04:45;23.064
06.01.2023 05:00;16.905
06.01.2023 05:15;18.354
06.01.2023 05:30;23.201
06.01.2023 05:45;17.047
06.01.2023 06:00;9.471
06.01.2023 06:15;9.122
06.01.2023 06:30;11.768
06.01.2023 06:45;11.158
06.01.2023 07:00;12.736
06.01.2023 07:15;21.298
06.01.2023 07:30;23.257
06.01.2023 07:45;26.565
06.01.2023 08:00;30.937
06.01.2023 08:15;43.425
06.01.2023 08:30;52.514
06.01.2023 08:45;59.560
06.01.2023 09:00;80.258
06.01.2023 09:15;79.641
06.01.2023 09:30;99.868
06.01.2023 09:45;103.342
06.01.2023 10:00;104.218
06.01.2023 10:15;114.546
06.01.2023 10:30;112.213
06.01.2023 10:45;96.259
06.01.2023 11:00;95.221
06.01.2023 11:15;106.520
06.01.2023 11:30;116.338
06.01.2023 11:45;128.801
06.01.2023 12:00;144.544
06.01.2023 12:15;143.023
06.01.2023 12:30;146.177
06.01.2023 12:45;140.828
06.01.2023 13:00;147.797
06.01.2023 13:15;131.839
06.01.2023 13:30;102.045
06.01.2023 13:45;103.445
06.01.2023 14:00;88.719
06.01.2023 14:15;83.291
06.01.2023 14:30;84.006
06.01.2023 14:45;93.775
06.01.2023 15:00;93.809
06.01.2023 15:15;89.485
06.01.2023 15:30;83.315
06.01.2023 15:45;74.190
06.01.2023 16:00;74.184
06.01.2023 16:15;78.363
06.01.2023 16:30;73.738
06.01.2023 16:45;66.214
06.01.2023 17:00;59.777
06.01.2023 17:15;55.522
06.01.2023 17:30;47.821
06.01.2023 17:45;29.088
06.01.2023 18:00;23.399
06.01.2023 18:15;29.652
06.01.2023 18:30;34.506
06.01.2023 18:45;42.441
06.01.2023 19:00;59.780
06.01.2023 19:15;61.431
06.01.2023 19:30;67.689
06.01.2023 19:45;68.109
06.01.2023 20:00;60.612
06.01.2023 20:15;48.928
06.01.2023 20:30;38.763
06.01.2023 20:45;30.639
06.01.2023 21:00;32.363
06.01.2023 21:15;35.668
06.01.2023 21:30;28.601
06.01.2023 21:45;18.252
06.01.2023 22:00;13.997
06.01.2023 22:15;7.898
06.01.2023 22:30;5.073
06.01.2023 22:45;4.690
06.01.2023 23:00;3.465
06.01.2023 23:15;6.343
06.01.2023 23:30;8.533
06.01.2023 23:45;2.387
07.01.2023 00:00;703
07.01.2023 00:15;1.920
07.01.2023 00:30;3.198
07.01.2023 00:45;4.293
07.01.2023 01:00;7.414
07.01.2023 01:15;9.571
07.01.2023 01:30;8.446
07.01.2023 01:45;7.422
07.01.2023 02:00;7.728
07.01.2023 02:15;6.777
07.01.2023 02:30;5.972
07.01.2023 02:45;4.657
07.01.2023 03:00;6.888
07.01.2023 03:15;10.611
07.01.2023 03:30;12.493
07.01.2023 03:45;10.962
07.01.2023 04:00;10.038
07.01.2023 04:15;8.082
07.01.2023 04:30;5.890
07.01.2023 04:45;4.871
07.01.2023 05:00;3.868
07.01.2023 05:15;3.485
07.01.2023 05:30;3.446
07.01.2023 05:45;4.161
07.01.2023 06:00;2.715
07.01.2023 06:15;3.749
07.01.2023 06:30;10.341
07.01.2023 06:45;15.061
07.01.2023 07:00;21.098
07.01.2023 07:15;22.199
07.01.2023 07:30;30.380
07.01.2023 07:45;44.425
07.01.2023 08:00;61.300
07.01.2023 08:15;59.703
07.01.2023 08:30;48.981
07.01.2023 08:45;38.514
07.01.2023 09:00;36.107
07.01.2023 09:15;35.450
07.01.2023 09:30;29.108
07.01.2023 09:45;27.088
07.01.2023 10:00;24.060
07.01.2023 10:15;41.880
07.01.2023 10:30;55.682
07.01.2023 10:45;62.000
07.01.2023 11:00;56.012
07.01.2023 11:15;49.977
07.01.2023 11:30;42.329
07.01.2023 11:45;37.828
07.01.2023 12:00;28.375
07.01.2023 12:15;23.281
07.01.2023 12:30;29.729
07.01.2023 12:45;38.657
07.01.2023 13:00;53.418
07.01.2023 13:15;63.874
07.01.2023 13:30;65.843
07.01.2023 13:45;60.111
07.01.2023 14:00;58.995
07.01.2023 14:15;58.808
07.01.2023 14:30;56.609
07.01.2023 14:45;49.590
07.01.2023 15:00;41.537
07.01.2023 15:15;33.678
07.01.2023 15:30;29.005
07.01.2023 15:45;32.627
07.01.2023 16:00;37.010
07.01.2023 16:15;48.901
07.01.2023 16:30;55.643
07.01.2023 16:45;57.211
07.01.2023 17:00;49.199
07.01.2023 17:15;33.751
07.01.2023 17:30;38.823
07.01.2023 17:45;55.579
07.01.2023 18:00;73.058
07.01.2023 18:15;84.012
07.01.2023 18:30;93.431
07.01.2023 18:45;92.050
07.01.2023 19:00;84.790
07.01.2023 19:15;79.050
07.01.2023 19:30;80.491
07.01.2023 19:45;80.409
07.01.2023 20:00;89.520
07.01.2023 20:15;96.740
07.01.2023 20:30;101.542
07.01.2023 20:45;105.909
07.01.2023 21:00;96.489
07.01.2023 21:15;92.473
07.01.2023 21:30;94.114
07.01.2023 21:45;80.861
07.01.2023 22:00;59.614
07.01.2023 22:15;50.985
07.01.2023 22:30;57.277
07.01.2023 22:45;64.298
07.01.2023 23:00;66.244
07.01.2023 23:15;81.324
07.01.2023 23:30;96.437
07.01.2023 23:45;98.262
08.01.2023 00:00;108.303
08.01.2023 00:15;138.311
08.01.2023 00:30;138.363
08.01.2023 00:45;137.011
08.01.2023 01:00;116.819
08.01.2023 01:15;103.284
08.01.2023 01:30;111.085
08.01.2023 01:45;113.229
08.01.2023 02:00;110.094
08.01.2023 02:15;111.691
08.01.2023 02:30;102.934
08.01.2023 02:45;102.352
08.01.2023 03:00;93.279
08.01.2023 03:15;72.102
08.01.2023 03:30;65.061
08.01.2023 03:45;69.996
08.01.2023 04:00;56.240
08.01.2023 04:15;56.928
08.01.2023 04:30;53.837
08.01.2023 04:45;45.223
08.01.2023 05:00;42.612
08.01.2023 05:15;48.770
08.01.2023 05:30;74.293
08.01.2023 05:45;100.032
08.01.2023 06:00;103.371
08.01.2023 06:15;77.813
08.01.2023 06:30;75.318
08.01.2023 06:45;58.925
08.01.2023 07:00;54.622
08.01.2023 07:15;51.244
08.01.2023 07:30;57.904
08.01.2023 07:45;69.299
08.01.2023 08:00;84.985
08.01.2023 08:15;79.751
08.01.2023 08:30;75.605
08.01.2023 08:45;74.789
08.01.2023 09:00;65.306
08.01.2023 09:15;69.633
08.01.2023 09:30;66.460
08.01.2023 09:45;49.302
08.01.2023 10:00;43.065
08.01.2023 10:15;41.468
08.01.2023 10:30;41.362
08.01.2023 10:45;31.656
08.01.2023 11:00;25.222
08.01.2023 11:15;28.421
08.01.2023 11:30;27.352
08.01.2023 11:45;31.469
08.01.2023 12:00;26.180
08.01.2023 12:15;12.719
08.01.2023 12:30;12.954
08.01.2023 12:45;13.569
08.01.2023 13:00;14.699
08.01.2023 13:15;18.075
08.01.2023 13:30;17.314
08.01.2023 13:45;24.628
08.01.2023 14:00;32.562
08.01.2023 14:15;32.499
08.01.2023 14:30;35.857
08.01.2023 14:45;36.431
08.01.2023 15:00;43.664
08.01.2023 15:15;46.130
08.01.2023 15:30;51.122
08.01.2023 15:45;34.776
08.01.2023 16:00;19.659
08.01.2023 16:15;23.216
08.01.2023 16:30;17.089
08.01.2023 16:45;17.498
08.01.2023 17:00;19.668
08.01.2023 17:15;18.072
08.01.2023 17:30;17.316
08.01.2023 17:45;19.343
08.01.2023 18:00;28.610
08.01.2023 18:15;24.606
08.01.2023 18:30;22.686
08.01.2023 18:45;21.408
08.01.2023 19:00;12.680
08.01.2023 19:15;12.318
08.01.2023 19:30;21.487
08.01.2023 19:45;38.716
08.01.2023 20:00;48.658
08.01.2023 20:15;52.034
08.01.2023 20:30;52.963
08.01.2023 20:45;46.873
08.01.2023 21:00;43.610
08.01.2023 21:15;56.467
08.01.2023 21:30;64.325
08.01.2023 21:45;54.846
08.01.2023 22:00;62.434
08.01.2023 22:15;72.093
08.01.2023 22:30;89.655
08.01.2023 22:45;91.889
08.01.2023 23:00;100.944
08.01.2023 23:15;113.281
08.01.2023 23:30;122.812
08.01.2023 23:45;128.197
09.01.2023 00:00;115.504
09.01.2023 00:15;119.795
09.01.2023 00:30;127.618
09.01.2023 00:45;127.127
09.01.2023 01:00;127.236
09.01.2023 01:15;115.812
09.01.2023 01:30;118.914
09.01.2023 01:45;127.932
09.01.2023 02:00;119.796
09.01.2023 02:15;92.924
09.01.2023 02:30;60.303
09.01.2023 02:45;44.851
09.01.2023 03:00;17.403
09.01.2023 03:15;17.910
09.01.2023 03:30;21.155
09.01.2023 03:45;26.678
09.01.2023 04:00;33.938
09.01.2023 04:15;40.141
09.01.2023 04:30;63.487
09.01.2023 04:45;85.425
09.01.2023 05:00;112.842
09.01.2023 05:15;138.654
09.01.2023 05:30;146.085
09.01.2023 05:45;151.761
09.01.2023 06:00;116.130
09.01.2023 06:15;129.243
09.01.2023 06:30;131.785
09.01.2023 06:45;139.651
09.01.2023 07:00;150.962
09.01.2023 07:15;158.828
09.01.2023 07:30;152.027
09.01.2023 07:45;135.609
09.01.2023 08:00;133.287
09.01.2023 08:15;139.813
09.01.2023 08:30;128.452
09.01.2023 08:45;133.858
09.01.2023 09:00;141.566
09.01.2023 09:15;122.002
09.01.2023 09:30;111.662
09.01.2023 09:45;100.953
09.01.2023 10:00;83.957
09.01.2023 10:15;68.430
09.01.2023 10:30;68.504
09.01.2023 10:45;80.431
09.01.2023 11:00;83.029
09.01.2023 11:15;103.684
09.01.2023 11:30;115.500
09.01.2023 11:45;105.154
09.01.2023 12:00;89.361
09.01.2023 12:15;82.261
09.01.2023 12:30;65.622
09.01.2023 12:45;49.306
09.01.2023 13:00;65.906
09.01.2023 13:15;87.879
09.01.2023 13:30;91.851
09.01.2023 13:45;72.920
09.01.2023 14:00;86.263
09.01.2023 14:15;100.078
09.01.2023 14:30;102.000
09.01.2023 14:45;68.972
09.01.2023 15:00;53.341
09.01.2023 15:15;61.950
09.01.2023 15:30;43.714
09.01.2023 15:45;46.214
09.01.2023 16:00;65.224
09.01.2023 16:15;70.608
09.01.2023 16:30;78.676
09.01.2023 16:45;93.518
09.01.2023 17:00;73.053
09.01.2023 17:15;77.410
09.01.2023 17:30;79.844
09.01.2023 17:45;66.566
09.01.2023 18:00;71.669
09.01.2023 18:15;81.632
09.01.2023 18:30;102.161
09.01.2023 18:45;115.524
09.01.2023 19:00;109.648
09.01.2023 19:15;72.167
09.01.2023 19:30;40.662
09.01.2023 19:45;29.310
09.01.2023 20:00;23.790
09.01.2023 20:15;23.100
09.01.2023 20:30;13.527
09.01.2023 20:45;13.263
09.01.2023 21:00;19.512
09.01.2023 21:15;23.020
09.01.2023 21:30;25.760
09.01.2023 21:45;26.655
09.01.2023 22:00;28.415
09.01.2023 22:15;31.766
09.01.2023 22:30;38.403
09.01.2023 22:45;32.388
09.01.2023 23:00;29.529
09.01.2023 23:15;38.701
09.01.2023 23:30;54.966
09.01.2023 23:45;70.549
10.01.2023 00:00;82.147
10.01.2023 00:15;93.602
10.01.2023 00:30;85.751
10.01.2023 00:45;102.490
10.01.2023 01:00;107.636
10.01.2023 01:15;97.359
10.01.2023 01:30;105.041
10.01.2023 01:45;116.622
10.01.2023 02:00;115.302
10.01.2023 02:15;120.031
10.01.2023 02:30;138.951
10.01.2023 02:45;142.832
10.01.2023 03:00;149.627
10.01.2023 03:15;153.129
10.01.2023 03:30;163.102
10.01.2023 03:45;167.814
10.01.2023 04:00;172.608
10.01.2023 04:15;158.604
10.01.2023 04:30;125.366
10.01.2023 04:45;120.385
10.01.2023 05:00;109.134
10.01.2023 05:15;94.726
10.01.2023 05:30;80.552
10.01.2023 05:45;84.832
10.01.2023 06:00;108.819
10.01.2023 06:15;110.675
10.01.2023 06:30;89.543
10.01.2023 06:45;59.700
10.01.2023 07:00;45.922
10.01.2023 07:15;45.808
10.01.2023 07:30;38.435
10.01.2023 07:45;57.049
10.01.2023 08:00;39.021
10.01.2023 08:15;41.210
10.01.2023 08:30;26.133
10.01.2023 08:45;21.082
10.01.2023 09:00;13.426
10.01.2023 09:15;11.660
10.01.2023 09:30;9.227
10.01.2023 09:45;9.251
10.01.2023 10:00;6.339
10.01.2023 10:15;6.289
10.01.2023 10:30;5.221
10.01.2023 10:45;9.774
10.01.2023 11:00;12.540
10.01.2023 11:15;11.402
10.01.2023 11:30;19.899
10.01.2023 11:45;29.555
10.01.2023 12:00;36.224
10.01.2023 12:15;29.456
10.01.2023 12:30;30.163
10.01.2023 12:45;45.481
10.01.2023 13:00;44.462
10.01.2023 13:15;45.539
10.01.2023 13:30;39.256
10.01.2023 13:45;44.469
10.01.2023 14:00;43.110
10.01.2023 14:15;39.130
10.01.2023 14:30;32.677
10.01.2023 14:45;33.091
10.01.2023 15:00;27.627
10.01.2023 15:15;21.003
10.01.2023 15:30;26.082
10.01.2023 15:45;32.832
10.01.2023 16:00;28.545
10.01.2023 16:15;25.022
10.01.2023 16:30;26.008
10.01.2023 16:45;31.022
10.01.2023 17:00;41.075
10.01.2023 17:15;42.739
10.01.2023 17:30;46.629
10.01.2023 17:45;45.708
10.01.2023 18:00;42.615
10.01.2023 18:15;38.899
10.01.2023 18:30;35.664
10.01.2023 18:45;46.542
10.01.2023 19:00;65.178
10.01.2023 19:15;68.598
10.01.2023 19:30;52.800
10.01.2023 19:45;51.430
10.01.2023 20:00;42.391
10.01.2023 20:15;48.705
10.01.2023 20:30;51.284
10.01.2023 20:45;38.791
10.01.2023 21:00;35.346
10.01.2023 21:15;34.872
10.01.2023 21:30;33.323
10.01.2023 21:45;39.633